Overview Statistics Trail Chart Weather Telemetry Raw packets
 

This is the latest recevied weather packets stored in our database for station/object N0QV. If no packets are shown the sender has not sent any weather packets the latest 10 day(s).

<< 74 75 76 77 78 79 80 >>
Time Temp. Humidity Pressure Rain* Wind** Luminosity Snow
1788141889 25° C 81% 1008.8 hPa 0 mm - 0 W/m² -
1788141583 25° C 81% 1008.8 hPa 0 mm - 0 W/m² -
1788141280 25° C 81% 1008.8 hPa 0 mm - 0 W/m² -
1788140980 25° C 81% 1009 hPa 0 mm - 0 W/m² -
1788140675 25° C 82% 1008.6 hPa 0 mm - 0 W/m² -
1788140370 25° C 81% 1008.5 hPa 0 mm - 0 W/m² -
1788140066 25° C 81% 1008.6 hPa 0 mm - 0 W/m² -
1788139766 25.56° C 81% 1008.4 hPa 0 mm - 0 W/m² -
1788139461 25.56° C 81% 1008.5 hPa 0 mm - 0 W/m² -
1788139161 25.56° C 82% 1008.3 hPa 0 mm - 0 W/m² -
1788138856 25.56° C 82% 1008.5 hPa 0 mm - 0 W/m² -
1788138552 25.56° C 81% 1008.4 hPa 0 mm - 0 W/m² -
1788138252 25.56° C 81% 1008.3 hPa 0 mm - 0 W/m² -
1788137948 26.11° C 80% 1008.7 hPa 0 mm - 1 W/m² -
1788137643 26.11° C 80% 1008.2 hPa 0 mm - 1 W/m² -
1788137337 26.11° C 80% 1008.3 hPa 0 mm - 2 W/m² -
1788137034 26.67° C 79% 1008.2 hPa 0 mm - 4 W/m² -
1788136729 26.67° C 78% 1008.3 hPa 0 mm - 7 W/m² -
1788136426 26.67° C 78% 1008.5 hPa 0 mm - 11 W/m² -
1788136125 26.67° C 78% 1008.3 hPa 0 mm - 16 W/m² -
1788135823 27.22° C 77% 1008.3 hPa 0 mm - 23 W/m² -
1788135520 27.22° C 77% 1008.1 hPa 0 mm - 34 W/m² -
1788135220 27.22° C 77% 1008 hPa 0 mm - 36 W/m² -
1788134917 27.22° C 77% 1008.3 hPa 0 mm - 32 W/m² -
1788134612 27.22° C 77% 1008.3 hPa 0 mm - 26 W/m² -

* Rain latest hour (hover to see other rain measurements)
** Current wind speed in m/s (hover to see current wind gust speed)